Flag for U.S.A. Weather past 2 weeks in Raleigh, North Carolina, U.S.A.

Now
70 °F

Fog.


Feels Like: 65 °F
Forecast: 70 / 90 °F
Wind: No wind

Location: Raleigh-Durham International Airport

Current Time: Sep 4, 2015 at 4:09:48 AM

Latest Report: Sep 4, 2015 at 2:51 AM


Visibility: 6 mi

Pressure: 29.91 "Hg

Humidity: 93%

Dew point: 68 °F

Location of RaleighLocation

Historic Weather in Raleigh — Graph

°F

Raleigh temperature yesterday

Maximum temperature yesterday: 90 °F (at 4:51 PM)
Minimum temperature yesterday: 69 °F (at 6:51 AM)
Average temperature yesterday: 77 °F

Past Weeks' High & Low Weather Summary

 TemperatureHumidityPressure
High92 °F (Sep 2, 4:51 PM)100% (Sep 1, 3:51 AM)30.23 "Hg (Sep 1, 3:51 AM)
Low60 °F (Aug 29, 5:51 AM)35% (Aug 28, 3:51 PM)29.85 "Hg (Aug 24, 6:51 PM)
Average76 °F71%30.03 "Hg
* Reported Aug 20 2:51 AM — Sep 4 2:51 AM, Raleigh, Weather by CustomWeather, © 2015

Note: Actual official high and low records may vary slightly from our data, if they occured in-between our weather recording intervals... More about our weather records

Advertising

Raleigh weather history for previous 24 hours

 ConditionsComfort  
Time TempWeatherWind HumidityBarometerVisibility
2:51 AM
Fri, Sep 4
70 °FFog.No wind93%29.91 "Hg6 mi
1:51 AM70 °FFog.No wind90%29.90 "Hg6 mi
12:51 AM72 °FFog.No wind87%29.91 "Hg6 mi
11:51 PM
Thu, Sep 3
72 °FPassing clouds.No wind84%29.91 "Hg7 mi
10:51 PM71 °FPassing clouds.No wind90%29.92 "Hg8 mi
9:51 PM75 °FPassing clouds.No wind79%29.91 "Hg8 mi
8:51 PM76 °FPartly cloudy.No wind82%29.90 "Hg10 mi
7:51 PM79 °FPartly sunny.No wind77%29.88 "Hg10 mi
6:51 PM80 °FBroken clouds.No wind76%29.87 "Hg10 mi
5:51 PM88 °FBroken clouds.No wind48%29.86 "Hg10 mi
4:51 PM90 °FBroken clouds.6 mph47%29.88 "Hg10 mi
3:51 PM89 °FBroken clouds.3 mph52%29.89 "Hg10 mi
2:51 PM88 °FPartly sunny.No wind46%29.91 "Hg10 mi
1:51 PM87 °FPartly sunny.No wind55%29.93 "Hg10 mi
12:51 PM84 °FBroken clouds.No wind59%29.96 "Hg10 mi
11:51 AM82 °FBroken clouds.No wind65%29.97 "Hg10 mi
10:51 AM79 °FPartly sunny.No wind74%29.97 "Hg10 mi
9:51 AM78 °FPartly sunny.No wind71%29.96 "Hg10 mi
8:51 AM73 °FPartly sunny.No wind88%29.96 "Hg8 mi
7:51 AM69 °FFog.No wind96%29.96 "Hg0 mi
6:51 AM69 °FFog.No wind96%29.95 "Hg0 mi
5:58 AM70 °FFog.No wind94%29.95 "Hg0 mi
4:51 AM70 °FFog.No wind97%29.93 "Hg1 mi
Weather by CustomWeather, © 2015

See weather overviewHow to use our weather pages